| time (UTC) | temp F | wind direction | speed MPH | gust MPH | rain 1hr in | rain 24hr in | rain mn in | humidity % | barometer mb |
| 20260905073017 | 58 | 0.0 | 0.0 | 0.00 | 0.00 | 0.00 | 95 | 1013.0 | |
| 20260905072017 | 58 | 0.0 | 0.0 | 0.00 | 0.00 | 0.00 | 95 | 1013.1 | |
| 20260905071017 | 59 | 0.0 | 0.0 | 0.00 | 0.00 | 0.00 | 95 | 1013.0 | |
| 20260905070017 | 59 | 0.0 | 0.0 | 0.00 | 0.00 | 0.00 | 95 | 1013.1 | |
| 20260905065017 | 59 | 0.0 | 0.0 | 0.00 | 0.00 | 0.00 | 95 | 1013.0 | |
| 20260905064038 | 59 | 0.0 | 0.0 | 0.00 | 0.00 | 0.00 | 95 | 1012.8 | |
| 20260905063017 | 59 | 0.0 | 0.0 | 0.00 | 0.00 | 0.00 | 94 | 1012.9 | |
| 20260905062038 | 59 | 0.0 | 0.0 | 0.00 | 0.00 | 0.00 | 95 | 1013.0 | |
| 20260905061037 | 59 | 0.0 | 0.0 | 0.00 | 0.00 | 0.00 | 95 | 1012.9 | |
| 20260905060017 | 59 | 0.0 | 0.0 | 0.00 | 0.00 | 0.00 | 94 | 1012.8 | |
| 20260905055017 | 59 | 0.0 | 0.0 | 0.00 | 0.00 | 0.00 | 94 | 1012.8 | |
| 20260905054018 | 59 | 0.0 | 0.0 | 0.00 | 0.00 | 0.00 | 94 | 1012.8 | |
| 20260905053017 | 59 | 0.0 | 0.0 | 0.00 | 0.00 | 0.00 | 94 | 1012.8 | |
| 20260905052017 | 59 | 0.0 | 0.0 | 0.00 | 0.00 | 0.00 | 94 | 1012.8 | |
| 20260905051037 | 60 | 0.0 | 0.0 | 0.00 | 0.00 | 0.00 | 94 | 1012.9 | |
| 20260905050017 | 59 | 0.0 | 0.0 | 0.00 | 0.00 | 0.00 | 94 | 1013.0 | |
| 20260905045017 | 59 | 0.0 | 0.0 | 0.00 | 0.00 | 0.00 | 93 | 1012.9 | |
| 20260905044017 | 59 | 0.0 | 0.0 | 0.00 | 0.00 | 0.00 | 91 | 1012.9 | |
| 20260905043038 | 60 | 0.0 | 0.0 | 0.00 | 0.00 | 0.00 | 90 | 1012.9 | |
| 20260905042017 | 60 | 0.0 | 0.0 | 0.00 | 0.00 | 0.00 | 89 | 1012.8 | |
| 20260905041037 | 60 | 0.0 | 0.0 | 0.00 | 0.00 | 0.00 | 89 | 1012.9 | |
| 20260905040017 | 61 | 0.0 | 0.0 | 0.00 | 0.00 | 0.00 | 90 | 1012.8 | |
| 20260905035017 | 61 | 0.0 | 0.0 | 0.00 | 0.00 | 0.00 | 90 | 1012.9 | |
| 20260905034017 | 61 | 0.0 | 0.0 | 0.00 | 0.00 | 0.00 | 90 | 1013.0 | |
| 20260905033037 | 61 | 0.0 | 0.0 | 0.00 | 0.00 | 0.00 | 89 | 1012.9 | |
| 20260905032017 | 61 | 0.0 | 0.0 | 0.00 | 0.00 | 0.00 | 89 | 1013.0 | |
| 20260905031017 | 61 | 0.0 | 0.0 | 0.00 | 0.00 | 0.00 | 88 | 1013.2 | |
| 20260905030038 | 61 | 0.0 | 0.0 | 0.00 | 0.00 | 0.00 | 88 | 1013.2 | |
| 20260905025017 | 61 | 0.0 | 0.0 | 0.00 | 0.00 | 0.00 | 87 | 1013.2 | |
| 20260905024058 | 62 | 0.0 | 0.0 | 0.00 | 0.00 | 0.00 | 87 | 1013.2 | |
| 20260905023017 | 62 | 0.0 | 0.0 | 0.00 | 0.00 | 0.00 | 87 | 1013.1 | |
| 20260905022037 | 63 | 0.0 | 0.0 | 0.00 | 0.00 | 0.00 | 85 | 1013.2 | |
| 20260905021018 | 63 | 0.0 | 0.0 | 0.00 | 0.00 | 0.00 | 84 | 1013.3 | |
| 20260905020018 | 63 | 0.0 | 0.0 | 0.00 | 0.00 | 0.00 | 84 | 1013.2 | |
| 20260905015017 | 63 | 0.0 | 0.0 | 0.00 | 0.00 | 0.00 | 84 | 1013.2 | |
| 20260905014017 | 63 | 0.0 | 0.0 | 0.00 | 0.00 | 0.00 | 84 | 1013.1 | |
| 20260905013017 | 64 | 0.0 | 0.0 | 0.00 | 0.00 | 0.00 | 85 | 1013.0 | |
| 20260905012017 | 64 | 0.0 | 0.0 | 0.00 | 0.00 | 0.00 | 84 | 1013.0 | |
| 20260905011017 | 64 | 0.0 | 0.0 | 0.00 | 0.00 | 0.00 | 84 | 1012.9 | |
| 20260905010017 | 65 | 0.0 | 0.0 | 0.00 | 0.00 | 0.00 | 82 | 1012.9 | |
| 20260905005017 | 65 | 0.0 | 1.0 | 0.00 | 0.00 | 0.00 | 82 | 1012.7 | |
| 20260905004017 | 65 | 0.0 | 0.0 | 0.00 | 0.00 | 0.00 | 81 | 1012.6 | |
| 20260905003017 | 66 | 0.0 | 0.0 | 0.00 | 0.00 | 0.00 | 81 | 1012.5 | |
| 20260905002037 | 66 | 0.0 | 0.0 | 0.00 | 0.00 | 0.00 | 82 | 1012.5 | |
| 20260905001017 | 66 | 0.0 | 0.0 | 0.00 | 0.00 | 0.00 | 81 | 1012.4 | |
| 20260905000038 | 67 | 0.0 | 2.0 | 0.00 | 0.00 | 0.00 | 83 | 1012.4 | |
| 20260904235017 | 67 | 0.0 | 0.0 | 0.00 | 0.00 | 0.00 | 83 | 1012.4 | |
| 20260904234017 | 67 | 0.0 | 0.0 | 0.00 | 0.00 | 0.00 | 83 | 1012.3 | |
| 20260904233038 | 67 | 0.0 | 0.0 | 0.00 | 0.00 | 0.00 | 82 | 1012.3 | |
| 20260904232017 | 67 | 0.0 | 0.0 | 0.00 | 0.00 | 0.00 | 82 | 1012.4 | |
| 20260904231018 | 67 | 0.0 | 0.0 | 0.00 | 0.00 | 0.00 | 82 | 1012.4 | |
| 20260904230017 | 68 | 0.0 | 0.0 | 0.00 | 0.00 | 0.00 | 81 | 1012.4 | |
| 20260904225017 | 68 | 0.0 | 0.0 | 0.00 | 0.00 | 0.00 | 82 | 1012.4 | |
| 20260904224038 | 69 | 0.0 | 0.0 | 0.00 | 0.00 | 0.00 | 79 | 1012.4 | |
| 20260904223518 | 69 | 0.0 | 0.0 | 0.00 | 0.00 | 0.00 | 79 | 1012.4 | |
| 20260904222537 | 69 | 0.0 | 0.0 | 0.00 | 0.00 | 0.00 | 79 | 1012.3 | |
| 20260904221517 | 69 | 0.0 | 0.0 | 0.00 | 0.00 | 0.00 | 78 | 1012.3 | |
| 20260904220518 | 70 | 0.0 | 0.0 | 0.00 | 0.00 | 0.00 | 75 | 1012.2 | |
| 20260904215518 | 70 | 0.0 | 0.0 | 0.00 | 0.00 | 0.00 | 75 | 1012.1 | |
| 20260904215017 | 70 | 0.0 | 3.0 | 0.00 | 0.00 | 0.00 | 74 | 1012.2 | |
| 20260904214517 | 70 | 338 | 1.0 | 6.0 | 0.00 | 0.00 | 0.00 | 74 | 1012.2 |
| 20260904213517 | 70 | 0.0 | 1.0 | 0.00 | 0.00 | 0.00 | 77 | 1012.2 | |
| 20260904212517 | 70 | 0.0 | 2.0 | 0.00 | 0.00 | 0.00 | 77 | 1012.1 | |
| 20260904211517 | 70 | 0.0 | 1.0 | 0.00 | 0.00 | 0.00 | 76 | 1012.1 | |
| 20260904210957 | 70 | 338 | 1.0 | 3.0 | 0.00 | 0.00 | 0.00 | 76 | 1012.1 |
| 20260904210517 | 70 | 0.0 | 2.0 | 0.00 | 0.00 | 0.00 | 77 | 1012.2 | |
| 20260904210017 | 70 | 0.0 | 1.0 | 0.00 | 0.00 | 0.00 | 76 | 1012.2 | |
| 20260904205517 | 70 | 0.0 | 2.0 | 0.00 | 0.00 | 0.00 | 76 | 1012.2 | |
| 20260904204517 | 70 | 0.0 | 2.0 | 0.00 | 0.00 | 0.00 | 75 | 1012.3 | |
| 20260904203518 | 70 | 338 | 1.0 | 4.0 | 0.00 | 0.00 | 0.00 | 74 | 1012.4 |
| 20260904202538 | 70 | 0.0 | 3.0 | 0.00 | 0.00 | 0.00 | 75 | 1012.5 | |
| 20260904201517 | 70 | 338 | 1.0 | 3.0 | 0.00 | 0.00 | 0.00 | 75 | 1012.4 |
| 20260904200537 | 70 | 338 | 1.0 | 4.0 | 0.00 | 0.00 | 0.00 | 75 | 1012.5 |
| 20260904195518 | 71 | 338 | 2.0 | 6.0 | 0.00 | 0.00 | 0.00 | 74 | 1012.3 |
| 20260904194517 | 71 | 0.0 | 2.0 | 0.00 | 0.00 | 0.00 | 76 | 1012.4 | |
| 20260904193516 | 71 | 338 | 1.0 | 4.0 | 0.00 | 0.01 | 0.00 | 75 | 1012.5 |
| 20260904192517 | 71 | 315 | 2.0 | 4.0 | 0.00 | 0.02 | 0.00 | 74 | 1012.5 |
| 20260904191518 | 71 | 0.0 | 4.0 | 0.00 | 0.02 | 0.00 | 76 | 1012.4 | |
| 20260904190517 | 71 | 315 | 1.0 | 4.0 | 0.00 | 0.02 | 0.00 | 75 | 1012.7 |
| 20260904185518 | 71 | 315 | 1.0 | 4.0 | 0.00 | 0.02 | 0.00 | 75 | 1012.5 |
| 20260904184517 | 71 | 338 | 1.0 | 4.0 | 0.00 | 0.02 | 0.00 | 80 | 1012.5 |
| 20260904183538 | 70 | 338 | 1.0 | 4.0 | 0.00 | 0.02 | 0.00 | 79 | 1012.7 |
| 20260904182517 | 70 | 315 | 1.0 | 3.0 | 0.00 | 0.02 | 0.00 | 78 | 1012.6 |
| 20260904181518 | 70 | 315 | 1.0 | 3.0 | 0.00 | 0.02 | 0.00 | 78 | 1012.6 |
| 20260904180517 | 70 | 0.0 | 2.0 | 0.00 | 0.02 | 0.00 | 78 | 1012.7 | |
| 20260904175538 | 70 | 0.0 | 1.0 | 0.00 | 0.02 | 0.00 | 82 | 1012.8 | |
| 20260904174517 | 69 | 0.0 | 0.0 | 0.00 | 0.02 | 0.00 | 85 | 1012.7 | |
| 20260904173518 | 69 | 0.0 | 1.0 | 0.00 | 0.02 | 0.00 | 85 | 1012.9 | |
| 20260904172558 | 68 | 0.0 | 0.0 | 0.00 | 0.02 | 0.00 | 87 | 1012.8 | |
| 20260904171518 | 67 | 0.0 | 0.0 | 0.00 | 0.02 | 0.00 | 88 | 1012.8 | |
| 20260904170518 | 67 | 0.0 | 2.0 | 0.00 | 0.02 | 0.00 | 87 | 1012.9 | |
| 20260904165518 | 67 | 0.0 | 0.0 | 0.00 | 0.02 | 0.00 | 88 | 1012.8 | |
| 20260904164537 | 67 | 0.0 | 0.0 | 0.00 | 0.02 | 0.00 | 86 | 1012.7 | |
| 20260904163518 | 67 | 0.0 | 3.0 | 0.00 | 0.02 | 0.00 | 85 | 1012.7 | |
| 20260904162517 | 68 | 315 | 1.0 | 5.0 | 0.00 | 0.02 | 0.00 | 81 | 1012.7 |
| 20260904161517 | 69 | 0.0 | 1.0 | 0.00 | 0.02 | 0.00 | 82 | 1012.6 | |
| 20260904160517 | 69 | 0.0 | 2.0 | 0.00 | 0.02 | 0.00 | 81 | 1012.6 | |
| 20260904155517 | 69 | 23 | 1.0 | 4.0 | 0.00 | 0.02 | 0.00 | 82 | 1012.7 |
| 20260904154518 | 68 | 338 | 1.0 | 6.0 | 0.00 | 0.02 | 0.00 | 86 | 1012.7 |
| 20260904153517 | 68 | 0.0 | 3.0 | 0.00 | 0.02 | 0.00 | 86 | 1012.8 | |
| 20260904152517 | 67 | 0.0 | 0.0 | 0.00 | 0.02 | 0.00 | 89 | 1012.9 | |
| 20260904151517 | 67 | 0.0 | 0.0 | 0.00 | 0.02 | 0.00 | 89 | 1013.0 | |
| 20260904150518 | 67 | 0.0 | 0.0 | 0.00 | 0.02 | 0.00 | 89 | 1013.2 | |
| 20260904145518 | 67 | 0.0 | 3.0 | 0.00 | 0.02 | 0.00 | 88 | 1013.2 | |
| 20260904144558 | 66 | 293 | 2.0 | 7.0 | 0.00 | 0.02 | 0.00 | 89 | 1013.0 |
| 20260904143517 | 66 | 338 | 1.0 | 4.0 | 0.00 | 0.02 | 0.00 | 91 | 1012.9 |
| 20260904142538 | 66 | 45 | 1.0 | 2.0 | 0.00 | 0.02 | 0.00 | 92 | 1012.9 |
| 20260904141518 | 65 | 0.0 | 2.0 | 0.00 | 0.02 | 0.00 | 93 | 1013.0 | |
| 20260904140517 | 65 | 315 | 1.0 | 4.0 | 0.00 | 0.02 | 0.00 | 93 | 1013.0 |
| 20260904135518 | 64 | 315 | 1.0 | 4.0 | 0.00 | 0.02 | 0.00 | 94 | 1012.8 |
| 20260904134517 | 64 | 315 | 1.0 | 3.0 | 0.00 | 0.02 | 0.00 | 95 | 1013.0 |
| 20260904133518 | 64 | 315 | 1.0 | 3.0 | 0.00 | 0.02 | 0.00 | 94 | 1012.8 |
| 20260904132517 | 63 | 0.0 | 0.0 | 0.00 | 0.02 | 0.00 | 95 | 1012.6 | |
| 20260904131518 | 63 | 0.0 | 1.0 | 0.00 | 0.02 | 0.00 | 95 | 1012.7 | |
| 20260904130517 | 63 | 0.0 | 0.0 | 0.00 | 0.02 | 0.00 | 96 | 1012.9 | |
| 20260904125517 | 62 | 0.0 | 0.0 | 0.00 | 0.02 | 0.00 | 96 | 1012.8 | |
| 20260904124517 | 62 | 0.0 | 0.0 | 0.00 | 0.02 | 0.00 | 96 | 1012.9 | |
| 20260904123539 | 62 | 0.0 | 0.0 | 0.00 | 0.02 | 0.00 | 96 | 1013.0 | |
| 20260904122517 | 62 | 0.0 | 0.0 | 0.00 | 0.02 | 0.00 | 97 | 1012.9 | |
| 20260904121518 | 62 | 0.0 | 0.0 | 0.00 | 0.02 | 0.00 | 97 | 1012.9 | |
| 20260904120538 | 62 | 0.0 | 0.0 | 0.00 | 0.02 | 0.00 | 97 | 1012.8 | |
| 20260904115518 | 61 | 0.0 | 0.0 | 0.00 | 0.02 | 0.00 | 97 | 1012.8 | |
| 20260904114517 | 61 | 0.0 | 0.0 | 0.00 | 0.02 | 0.00 | 97 | 1012.6 | |
| 20260904113518 | 61 | 0.0 | 0.0 | 0.00 | 0.02 | 0.00 | 97 | 1012.5 | |
| 20260904112538 | 61 | 0.0 | 0.0 | 0.00 | 0.02 | 0.00 | 97 | 1012.4 | |
| 20260904111537 | 61 | 0.0 | 0.0 | 0.00 | 0.02 | 0.00 | 97 | 1012.3 | |
| 20260904110537 | 61 | 0.0 | 0.0 | 0.00 | 0.02 | 0.00 | 97 | 1012.4 | |
| 20260904105538 | 61 | 0.0 | 0.0 | 0.00 | 0.02 | 0.00 | 97 | 1012.4 | |
| 20260904104517 | 61 | 0.0 | 0.0 | 0.00 | 0.02 | 0.00 | 97 | 1012.3 | |
| 20260904103518 | 61 | 0.0 | 0.0 | 0.00 | 0.02 | 0.00 | 97 | 1012.1 | |
| 20260904102517 | 61 | 0.0 | 0.0 | 0.00 | 0.02 | 0.00 | 97 | 1012.1 | |
| 20260904101517 | 61 | 0.0 | 0.0 | 0.00 | 0.02 | 0.00 | 97 | 1012.1 | |
| 20260904100517 | 61 | 0.0 | 0.0 | 0.00 | 0.02 | 0.00 | 97 | 1012.0 | |
| 20260904095538 | 61 | 0.0 | 0.0 | 0.00 | 0.02 | 0.00 | 97 | 1012.0 | |
| 20260904094517 | 61 | 0.0 | 0.0 | 0.00 | 0.02 | 0.00 | 97 | 1011.8 | |
| 20260904093539 | 61 | 0.0 | 0.0 | 0.00 | 0.02 | 0.00 | 97 | 1011.7 | |
| 20260904092537 | 61 | 0.0 | 0.0 | 0.00 | 0.02 | 0.00 | 97 | 1011.8 | |
| 20260904091518 | 61 | 0.0 | 0.0 | 0.00 | 0.02 | 0.00 | 97 | 1011.6 | |
| 20260904090517 | 61 | 0.0 | 0.0 | 0.00 | 0.02 | 0.00 | 97 | 1011.6 | |
| 20260904085538 | 61 | 0.0 | 0.0 | 0.00 | 0.02 | 0.00 | 97 | 1011.6 | |
| 20260904084517 | 61 | 0.0 | 0.0 | 0.00 | 0.02 | 0.00 | 97 | 1011.5 | |
| 20260904083519 | 61 | 0.0 | 0.0 | 0.00 | 0.02 | 0.00 | 97 | 1011.5 | |
| 20260904082515 | 61 | 0.0 | 0.0 | 0.00 | 0.02 | 0.00 | 96 | 1011.6 | |
| 20260904081538 | 61 | 0.0 | 0.0 | 0.00 | 0.02 | 0.00 | 97 | 1011.6 | |
| 20260904080517 | 62 | 0.0 | 0.0 | 0.00 | 0.02 | 0.00 | 97 | 1011.6 | |
| 20260904075517 | 62 | 0.0 | 0.0 | 0.00 | 0.02 | 0.00 | 97 | 1011.6 | |
| 20260904074537 | 62 | 0.0 | 0.0 | 0.00 | 0.02 | 0.00 | 97 | 1011.7 |